Simultaneous Nadir Overpasses (SNOs) Predictions

Prediction of SNOs near US between AQUA and NPP Satellite Orbit:

Table of predicted SNOs near US for the next 10.0 days since TLE Epoch: 11/12/2022
Index Date (AQUA) Time (AQUA) AQUA Lat,Lon Date (NPP) Time (NPP) NPP Lat,Lon Distance(km) Time Diff (sec)
1 11/18/2022 07:14:28 27.83, -78.72 11/18/2022 07:08:18 28.22, -80.89 217.37 370
2 11/18/2022 08:50:46 37.05,-100.91 11/18/2022 08:47:09 37.49,-103.57 240.77 217
3 11/18/2022 10:27:05 46.15,-122.60 11/18/2022 10:26:01 46.64,-125.70 244.20 64
4 11/20/2022 21:23:09 49.49,-124.98 11/20/2022 21:15:00 49.08,-127.44 184.15 489
